Time,TemperatureF,DewpointF,PressureIn,WindDirection,WindDirectionDegrees,WindSpeedMPH,WindSpeedGustMPH,Humidity,HourlyPrecipIn,Conditions,Clouds,dailyrainin,SoftwareType,DateUTC
2013-02-23 00:00:00,18.0,18.0,-100.00,West,276,16.0,25.0,100,-99.99,,,-99.99,,2013-02-23 08:00:00,
2013-02-23 01:00:00,17.0,17.0,-100.00,WNW,292,16.0,28.0,99,-99.99,,,-99.99,,2013-02-23 09:00:00,
2013-02-23 02:00:00,16.0,16.0,-100.00,WNW,294,13.0,27.0,98,-99.99,,,-99.99,,2013-02-23 10:00:00,
2013-02-23 03:00:00,17.0,17.0,-100.00,WNW,283,12.0,24.0,99,-99.99,,,-99.99,,2013-02-23 11:00:00,
2013-02-23 04:00:00,17.0,17.0,-100.00,WNW,287,10.0,24.0,99,-99.99,,,-99.99,,2013-02-23 12:00:00,
2013-02-23 05:00:00,18.0,18.0,-100.00,West,281,9.0,16.0,99,-99.99,,,-99.99,,2013-02-23 13:00:00,
2013-02-23 06:00:00,18.0,18.0,-100.00,WNW,290,12.0,24.0,99,-99.99,,,-99.99,,2013-02-23 14:00:00,
2013-02-23 10:00:00,22.0,22.0,-100.00,NW,306,15.0,27.0,100,-99.99,,,-99.99,,2013-02-23 18:00:00,
2013-02-23 11:00:00,23.0,23.0,-100.00,WNW,300,14.0,27.0,100,-99.99,,,-99.99,,2013-02-23 19:00:00,
2013-02-23 12:00:00,22.0,22.0,-100.00,NW,305,15.0,27.0,100,-99.99,,,-99.99,,2013-02-23 20:00:00,
2013-02-23 14:00:00,21.0,21.0,-100.00,NW,310,16.0,27.0,100,-99.99,,,-99.99,,2013-02-23 22:00:00,
2013-02-23 14:52:00,21.0,21.0,-100.00,NW,310,16.0,27.0,100,-99.99,,,-99.99,,2013-02-23 22:52:00,
2013-02-23 15:00:00,21.0,21.0,-100.00,NW,319,16.0,27.0,100,-99.99,,,-99.99,,2013-02-23 23:00:00,
2013-02-23 16:00:00,20.0,20.0,-100.00,NNW,334,16.0,24.0,100,-99.99,,,-99.99,,2013-02-24 00:00:00,
2013-02-23 17:00:00,19.0,19.0,-100.00,NNW,338,18.0,29.0,100,-99.99,,,-99.99,,2013-02-24 01:00:00,
2013-02-23 18:00:00,18.0,18.0,-100.00,NNW,329,18.0,29.0,100,-99.99,,,-99.99,,2013-02-24 02:00:00,
2013-02-23 19:00:00,18.0,18.0,-100.00,NW,326,15.0,23.0,100,-99.99,,,-99.99,,2013-02-24 03:00:00,
2013-02-23 20:00:00,18.0,18.0,-100.00,NW,325,17.0,27.0,100,-99.99,,,-99.99,,2013-02-24 04:00:00,
2013-02-23 21:00:00,18.0,18.0,-100.00,NNW,330,17.0,27.0,100,-99.99,,,-99.99,,2013-02-24 05:00:00,
2013-02-23 22:00:00,17.0,17.0,-100.00,NNW,332,16.0,25.0,99,-99.99,,,-99.99,,2013-02-24 06:00:00,
2013-02-23 23:00:00,18.0,18.0,-100.00,NNW,332,17.0,25.0,99,-99.99,,,-99.99,,2013-02-24 07:00:00,